Hourly Data Report for September 30, 2017

All times are specified in Local Standard Time (LST). Add 1 hour to adjust for Daylight Saving Time where and when it is observed.

PORT ALBERNI (AUT)
BRITISH COLUMBIA

49°18'59.700" N
124°55'36.600" W
76.20 m
1036B06
71475
WQC

Related Data

No related data is available for this station

Download Data

Hourly Data (September 2017)
Hourly Data Report for September 30, 2017
Temp Definition
°C
Dew Point Temp Definition
°C
Rel Hum Definition
%
Wind Dir Definition
10's deg

Wind Spd Definition
km/h
Visibility Definition
km
Stn Press Definition
kPa
Hmdx Definition


Wind Chill Definition


Weather Definition


TIME
00:00 9.4 8.9 97 24 2   100.73     LegendNANA
01:00 9.6 9.1 97 18 1   100.77     LegendNANA
02:00 9.2 8.8 98 33 4   100.79     LegendNANA
03:00 8.4 8.1 98 33 3   100.80     LegendNANA
04:00 9.1 8.8 98 22 1   100.80     LegendNANA
05:00 8.0 7.7 98 4 4   100.81     LegendNANA
06:00 7.6 7.4 99 29 2   100.81     LegendNANA
07:00 8.5 8.4 99 25 3   100.84     LegendNANA
08:00 9.0 8.9 99 30 3   100.84     LegendNANA
09:00 9.9 9.5 97 34 2   100.86     LegendNANA
10:00 10.6 10.0 96 11 6   100.86     LegendNANA
11:00 11.9 10.8 93 12 8   100.85     LegendNANA
12:00 12.2 10.6 90 11 4   100.82     LegendNANA
13:00 13.5 9.3 76 36 2   100.79     LegendNANA
14:00 13.5 9.9 79 36 3   100.78     LegendNANA
15:00 15.3 9.0 66 24 5   100.80     LegendNANA
16:00 12.8 11.1 90 3 4   100.83     LegendNANA
17:00 13.1 11.3 89 0 1   100.86     LegendNANA
18:00 11.0 10.2 95 10 1   100.88     LegendNANA
19:00 9.1 8.6 97 5 1   100.92     LegendNANA
20:00 8.3 8.1 98 0 1   100.95     LegendNANA
21:00 9.2 9.1 99 0 1   100.98     LegendNANA
22:00 9.6 9.4 99 1 1   101.02     LegendNANA
23:00 9.7 9.6 99   0   101.05     LegendNANA

Notes on Data Quality.

Legend

  • E = Estimated
  • M = Missing
  • NA = Not Available
  • ‡ = Partner data that is not subject to review by the National Climate Archives
Date modified: